EW7906 Weather Reports


Display with metric or nautical units.
time (UTC)temp
F
wind
direction
speed
MPH
gust
MPH
rain 1hr
in
rain 24hr
in
rain mn
in
humidity
%
barometer
mb
20260903130626 144 143 0.0 8.0 0.00 0.00 0.00 100 1013.8
20260903130118 144 118 5.0 8.0 0.00 0.00 0.00 100 1013.8
20260903130114 144 157 2.0 9.0 0.00 0.00 0.00 100 1013.8
20260903125110 144 229 4.0 11.0 0.00 0.00 0.00 100 1013.6
20260903124610 144 184 3.0 11.0 0.00 0.00 0.00 100 1013.6
20260903124110 144 154 5.0 10.0 0.00 0.00 0.00 100 1013.6
20260903123609 144 129 1.0 6.0 0.00 0.00 0.00 100 1013.6
20260903123108 144 150 0.0 6.0 0.00 0.00 0.00 100 1013.6
20260903122607 144 206 0.0 8.0 0.00 0.00 0.00 100 1013.5
20260903122056 144 192 3.0 8.0 0.00 0.00 0.00 100 1013.5
20260903121556 144 136 0.0 8.0 0.00 0.00 0.00 100 1013.4
20260903121057 144 192 1.0 8.0 0.00 0.00 0.00 100 1013.4
20260903120557 144 123 3.0 6.0 0.00 0.00 0.00 100 1013.4
20260903120057 144 163 0.0 9.0 0.00 0.00 0.00 100 1013.4
20260903115536 144 153 4.0 9.0 0.00 0.00 0.00 100 1013.3
20260903115531 144 126 2.0 8.0 0.00 0.00 0.00 100 1013.3
20260903114756 144 143 0.0 0.0 0.00 0.00 0.00 100 1013.3
20260903114011 144 143 0.0 0.0 0.00 0.00 0.00 100 1013.2
20260903113510 144 143 0.0 0.0 0.00 0.00 0.00 100 1013.3
20260903113005 144 143 0.0 5.0 0.00 0.00 0.00 100 1013.2
20260903112456 144 143 0.0 5.0 0.00 0.00 0.00 100 1013.2
20260903111956 144 136 2.0 9.0 0.00 0.00 0.00 100 1013.1
20260903111457 144 136 1.0 9.0 0.00 0.00 0.00 100 1013.1
20260903111224 144 153 1.0 8.0 0.00 0.00 0.00 100 1013.1
20260903110442 144 222 3.0 8.0 0.00 0.00 0.00 100 1013.0
20260903105937 144 154 1.0 9.0 0.00 0.00 0.00 100 1013.0
20260903105427 144 151 3.0 9.0 0.00 0.00 0.00 100 1013.0
20260903104927 144 201 0.0 6.0 0.00 0.00 0.00 100 1013.0
20260903104416 144 158 1.0 6.0 0.00 0.00 0.00 100 1012.9
20260903103913 144 154 2.0 8.0 0.00 0.00 0.00 100 1012.9
20260903103412 144 187 1.0 10.0 0.00 0.00 0.00 100 1012.9
20260903102910 144 177 0.0 10.0 0.00 0.00 0.00 100 1012.8
20260903102629 144 180 3.0 10.0 0.00 0.00 0.00 100 1012.8
20260903101857 144 170 0.0 11.0 0.00 0.00 0.00 100 1012.6
20260903101615 144 165 3.0 11.0 0.00 0.00 0.00 100 1012.6
20260903100843 144 167 2.0 7.0 0.00 0.00 0.00 100 1012.6
20260903100337 144 178 4.0 7.0 0.00 0.00 0.00 100 1012.6
20260903095838 144 180 1.0 7.0 0.00 0.00 0.00 100 1012.6
20260903095338 144 157 2.0 6.0 0.00 0.00 0.00 100 1012.6
20260903094836 144 123 1.0 7.0 0.00 0.00 0.00 100 1012.8
20260903094323 144 144 1.0 8.0 0.00 0.00 0.00 100 1012.9
20260903093820 144 146 1.0 8.0 0.00 0.00 0.00 100 1012.9
20260903093542 144 158 2.0 9.0 0.00 0.00 0.00 100 1013.0
20260903092804 144 184 4.0 9.0 0.00 0.00 0.00 100 1013.0
20260903092800 144 208 4.0 9.0 0.00 0.00 0.00 100 1013.0
20260903091800 144 153 5.0 8.0 0.00 0.00 0.00 100 1013.1
20260903091300 144 157 1.0 8.0 0.00 0.00 0.00 100 1013.2
20260903091027 144 139 3.0 10.0 0.00 0.00 0.00 100 1013.2
20260903090257 144 160 3.0 10.0 0.00 0.00 0.00 100 1013.2
20260903085758 144 135 1.0 10.0 0.00 0.00 0.00 100 1013.2
20260903085258 144 198 4.0 10.0 0.00 0.00 0.00 100 1013.2
20260903084757 144 178 6.0 11.0 0.00 0.00 0.00 100 1013.3
20260903084256 144 157 6.0 11.0 0.00 0.00 0.00 100 1013.2
20260903083757 144 126 3.0 9.0 0.00 0.00 0.00 100 1013.2
20260903083524 144 184 3.0 9.0 0.00 0.00 0.00 100 1013.2
20260903083015 144 146 4.0 9.0 0.00 0.00 0.00 100 1013.2
20260903082238 144 189 0.0 9.0 0.00 0.00 0.00 100 1013.2
20260903081735 144 192 0.0 8.0 0.00 0.00 0.00 100 1013.2
20260903081235 144 154 5.0 8.0 0.00 0.00 0.00 100 1013.1
20260903081007 144 168 0.0 9.0 0.00 0.00 0.00 100 1013.1
20260903080229 144 168 6.0 9.0 0.00 0.00 0.00 100 1013.1
20260903075729 144 151 5.0 9.0 0.00 0.00 0.00 100 1013.2
20260903075230 144 188 2.0 6.0 0.00 0.00 0.00 100 1013.2
20260903074710 144 151 0.0 7.0 0.00 0.00 0.00 100 1013.2
20260903074156 144 168 5.0 7.0 0.00 0.00 0.00 100 1013.3
20260903073656 144 154 2.0 10.0 0.00 0.00 0.00 100 1013.3
20260903073150 144 210 4.0 10.0 0.00 0.00 0.00 100 1013.4
20260903072629 144 161 5.0 8.0 0.00 0.00 0.00 100 1013.3
20260903072128 144 150 4.0 7.0 0.00 0.00 0.00 100 1013.4
20260903071630 144 113 3.0 9.0 0.00 0.00 0.00 100 1013.4
20260903071109 144 101 0.0 9.0 0.00 0.00 0.00 100 1013.5
20260903070834 144 170 5.0 8.0 0.00 0.00 0.00 100 1013.4
20260903065601 144 158 4.0 10.0 0.00 0.00 0.00 100 1013.4
20260903065331 144 163 5.0 9.0 0.00 0.00 0.00 100 1013.4
20260903064600 144 151 4.0 9.0 0.00 0.00 0.00 100 1013.4
20260903064100 144 135 0.0 6.0 0.00 0.00 0.00 100 1013.5
20260903063553 144 189 0.0 8.0 0.00 0.00 0.00 100 1013.5
20260903063041 144 195 2.0 12.0 0.00 0.00 0.00 100 1013.5
20260903062541 144 198 0.0 12.0 0.00 0.00 0.00 100 1013.5
20260903062036 144 195 4.0 10.0 0.00 0.00 0.00 100 1013.5
20260903061535 145 163 3.0 9.0 0.00 0.00 0.00 100 1013.5
20260903061035 145 135 6.0 10.0 0.00 0.00 0.00 100 1013.5
20260903060539 145 151 6.0 9.0 0.00 0.00 0.00 100 1013.5
20260903060535 145 181 4.0 10.0 0.00 0.00 0.00 100 1013.6
20260903055534 145 142 5.0 10.0 0.00 0.00 0.00 100 1013.4
20260903055033 145 158 4.0 10.0 0.00 0.00 0.00 100 1013.4
20260903054530 145 133 6.0 10.0 0.00 0.00 0.00 100 1013.3
20260903054025 145 199 7.0 12.0 0.00 0.00 0.00 100 1013.3
20260903053525 145 150 6.0 12.0 0.00 0.00 0.00 100 1013.3
20260903053023 145 125 5.0 9.0 0.00 0.00 0.00 100 1013.3
20260903052519 145 167 2.0 14.0 0.00 0.00 0.00 100 1013.2
20260903052017 145 163 7.0 14.0 0.00 0.00 0.00 100 1013.3
20260903051746 145 151 6.0 10.0 0.00 0.00 0.00 100 1013.2
20260903051016 145 151 0.0 11.0 0.00 0.00 0.00 100 1013.2
20260903050747 145 170 5.0 11.0 0.00 0.00 0.00 100 1013.2
20260903050232 145 142 4.0 11.0 0.00 0.00 0.00 100 1013.1
20260903045501 145 178 5.0 11.0 0.00 0.00 0.00 100 1013.2
20260903045000 145 150 1.0 10.0 0.00 0.00 0.00 100 1013.1
20260903044501 145 139 3.0 10.0 0.00 0.00 0.00 100 1013.2
20260903043958 145 130 3.0 7.0 0.00 0.00 0.00 100 1013.1
20260903043456 145 150 4.0 7.0 0.00 0.00 0.00 100 1013.1
20260903043227 145 126 1.0 8.0 0.00 0.00 0.00 100 1013.1
20260903042456 145 154 2.0 8.0 0.00 0.00 0.00 100 1013.1
20260903041956 145 154 2.0 8.0 0.00 0.00 0.00 100 1013.1
20260903041443 145 160 0.0 8.0 0.00 0.00 0.00 100 1013.1
20260903040925 145 88 3.0 6.0 0.00 0.00 0.00 100 1013.1
20260903040404 145 158 0.0 5.0 0.00 0.00 0.00 100 1013.1
20260903035856 145 97 0.0 5.0 0.00 0.00 0.00 100 1013.0
20260903035350 145 151 1.0 5.0 0.00 0.00 0.00 100 1013.1
20260903034847 145 129 2.0 7.0 0.00 0.00 0.00 100 1013.0
20260903034342 145 39 2.0 8.0 0.00 0.00 0.00 100 1013.0
20260903034058 145 74 2.0 11.0 0.00 0.00 0.00 100 1013.1
20260903033328 145 97 6.0 11.0 0.00 0.00 0.00 100 1013.2
20260903032829 145 106 5.0 11.0 0.00 0.00 0.00 100 1013.0
20260903032325 146 139 3.0 11.0 0.00 0.00 0.00 100 1012.9
20260903031825 146 135 0.0 4.0 0.00 0.00 0.00 100 1012.5
20260903031326 146 111 0.0 4.0 0.00 0.00 0.00 100 1012.5
20260903030804 146 28 0.0 11.0 0.00 0.00 0.00 100 1012.3
20260903030256 146 28 0.0 11.0 0.00 0.00 0.00 100 1012.3
20260903025756 146 122 0.0 0.0 0.00 0.00 0.00 100 1012.4
20260903025518 146 122 0.0 0.0 0.00 0.00 0.00 100 1012.1
20260903024743 146 122 0.0 0.0 0.00 0.00 0.00 100 1012.2
20260903024232 146 122 0.0 0.0 0.00 0.00 0.00 100 1011.9
20260903023711 146 122 0.0 0.0 0.00 0.00 0.00 100 1011.8
20260903023147 146 122 0.0 0.0 0.00 0.00 0.00 100 1011.8
20260903022644 146 122 0.0 0.0 0.00 0.00 0.00 100 1011.7
20260903022143 146 122 0.0 0.0 0.00 0.00 0.00 100 1011.6
20260903021626 146 122 0.0 0.0 0.00 0.00 0.00 100 1011.5
20260903021124 146 122 0.0 0.0 0.00 0.00 0.00 100 1011.4
20260903020612 146 122 0.0 0.0 0.00 0.00 0.00 100 1011.4
20260903020337 146 122 0.0 0.0 0.00 0.00 0.00 100 1011.2
20260903015546 146 122 0.0 0.0 0.00 0.00 0.00 100 1011.2
20260903015037 146 122 0.0 0.0 0.00 0.00 0.00 100 1011.1
20260903014535 146 122 0.0 0.0 0.00 0.00 0.00 100 1011.1
20260903014025 146 122 0.0 0.0 0.00 0.00 0.00 100 1011.0
20260903013521 146 122 0.0 0.0 0.00 0.00 0.00 100 1010.9
20260903012958 146 122 0.0 0.0 0.00 0.00 0.00 100 1010.9
20260903012726 146 122 0.0 0.0 0.00 0.00 0.00 100 1011.0
20260903012222 146 122 0.0 5.0 0.00 0.00 0.00 100 1011.0
20260903011710 146 122 0.0 5.0 0.00 0.00 0.00 100 1011.0
20260903011210 146 16 0.0 0.0 0.00 0.00 0.00 100 1010.9
20260903010438 146 16 0.0 0.0 0.00 0.00 0.00 100 1010.9
20260903005915 146 16 0.0 0.0 0.00 0.00 0.00 100 1010.9
20260903005414 147 16 0.0 0.0 0.00 0.00 0.00 100 1011.0
20260903004859 147 16 0.0 0.0 0.00 0.00 0.00 100 1011.0
20260903004341 147 16 0.0 0.0 0.00 0.00 0.00 100 1011.0
20260903003838 147 16 0.0 0.0 0.00 0.00 0.00 100 1010.9
20260903003325 147 16 0.0 0.0 0.00 0.00 0.00 100 1010.9
20260903002817 147 16 0.0 0.0 0.00 0.00 0.00 100 1010.8
20260903002306 147 16 0.0 1.0 0.00 0.00 0.00 100 1010.9
20260903002028 147 16 0.0 5.0 0.00 0.00 0.00 100 1010.9
20260903001246 147 16 1.0 5.0 0.00 0.00 0.00 100 1010.8
20260903000741 147 47 0.0 7.0 0.00 0.00 0.00 100 1010.8
20260903000229 147 54 2.0 9.0 0.00 0.00 0.00 100 1010.8
20260902235727 148 33 4.0 9.0 0.00 0.00 0.00 100 1010.9
20260902235227 148 0 4.0 11.0 0.00 0.00 0.00 100 1010.8
20260902234728 149 81 2.0 11.0 0.00 0.00 0.00 100 1010.8
20260902234230 149 125 0.0 3.0 0.00 0.00 0.00 100 1010.7
20260902233711 149 230 0.0 0.0 0.00 0.00 0.00 100 1010.7
20260902233210 149 230 0.0 0.0 0.00 0.00 0.00 100 1010.6
20260902232658 149 230 0.0 4.0 0.00 0.00 0.00 100 1010.7
20260902232157 150 230 0.0 5.0 0.00 0.00 0.00 100 1010.6
20260902231657 150 170 0.0 5.0 0.00 0.00 0.00 100 1010.6
20260902231427 150 299 0.0 4.0 0.00 0.00 0.00 100 1010.6
20260902230654 150 299 0.0 4.0 0.00 0.00 0.00 100 1010.6
20260902230154 150 164 0.0 6.0 0.00 0.00 0.00 100 1010.6
20260902225621 149 293 1.0 6.0 0.00 0.00 0.00 100 1010.6
20260902225113 150 285 0.0 4.0 0.00 0.00 0.00 100 1010.6
20260902224547 150 153 0.0 4.0 0.00 0.00 0.00 100 1010.6
20260902224316 150 326 1.0 4.0 0.00 0.00 0.00 100 1010.6
20260902223537 150 23 0.0 6.0 0.00 0.00 0.00 100 1010.6
20260902223017 150 23 3.0 6.0 0.00 0.00 0.00 100 1010.6
20260902222501 150 226 0.0 0.0 0.00 0.00 0.00 100 1010.7
20260902222222 150 226 0.0 0.0 0.00 0.00 0.00 100 1010.8
20260902221417 150 226 0.0 7.0 0.00 0.00 0.00 100 1010.7
20260902220858 150 226 0.0 7.0 0.00 0.00 0.00 100 1010.8
20260902220342 149 225 0.0 7.0 0.00 0.00 0.00 100 1010.9
20260902220055 149 250 1.0 7.0 0.00 0.00 0.00 100 1010.9
20260902215256 149 147 0.0 7.0 0.00 0.00 0.00 100 1010.9
20260902214744 149 229 3.0 7.0 0.00 0.00 0.00 100 1010.9
20260902214516 150 199 2.0 7.0 0.00 0.00 0.00 100 1011.0
20260902213742 150 255 2.0 7.0 0.00 0.00 0.00 100 1011.0
20260902213244 150 36 0.0 0.0 0.00 0.00 0.00 100 1011.0
20260902212743 149 36 0.0 0.0 0.00 0.00 0.00 100 1011.0
20260902212223 149 36 0.0 0.0 0.00 0.00 0.00 100 1011.1
20260902211659 149 36 0.0 0.0 0.00 0.00 0.00 100 1011.1
20260902211137 149 36 0.0 0.0 0.00 0.00 0.00 100 1011.1
20260902210617 150 36 0.0 0.0 0.00 0.00 0.00 100 1011.2
20260902210111 150 36 0.0 0.0 0.00 0.00 0.00 100 1011.2
20260902205604 149 36 0.0 1.0 0.00 0.00 0.00 100 1011.4
20260902205041 149 36 0.0 4.0 0.00 0.00 0.00 100 1011.5
20260902204534 151 36 0.0 7.0 0.00 0.00 0.00 100 1011.5
20260902204030 151 330 0.0 7.0 0.00 0.00 0.00 100 1011.6
20260902203526 151 2 1.0 6.0 0.00 0.00 0.00 100 1011.6
20260902203026 151 11 0.0 7.0 0.00 0.00 0.00 100 1011.7
20260902202526 150 28 3.0 7.0 0.00 0.00 0.00 100 1011.8
20260902202026 150 12 4.0 8.0 0.00 0.00 0.00 100 1011.9
20260902201526 150 312 4.0 8.0 0.00 0.00 0.00 100 1011.9
20260902201026 150 358 0.0 5.0 0.00 0.00 0.00 100 1011.9
20260902200523 150 358 0.0 5.0 0.00 0.00 0.00 100 1012.1
20260902200250 150 289 0.0 5.0 0.00 0.00 0.00 100 1012.1
20260902195516 151 264 1.0 6.0 0.00 0.00 0.00 100 1012.2
20260902195013 151 358 0.0 6.0 0.00 0.00 0.00 100 1012.2
20260902194515 151 180 0.0 0.0 0.00 0.00 0.00 100 1012.3
20260902194009 151 180 0.0 0.0 0.00 0.00 0.00 100 1012.4
20260902193458 151 180 0.0 3.0 0.00 0.00 0.00 100 1012.5
20260902192948 150 180 0.0 5.0 0.00 0.00 0.00 100 1012.6
20260902192443 150 358 1.0 5.0 0.00 0.00 0.00 100 1012.6
20260902191922 151 180 0.0 5.0 0.00 0.00 0.00 100 1012.9
20260902191417 151 188 0.0 5.0 0.00 0.00 0.00 100 1012.9
20260902190858 151 191 0.0 6.0 0.00 0.00 0.00 100 1012.9
20260902190348 151 272 4.0 6.0 0.00 0.00 0.00 100 1013.0
20260902185844 151 350 1.0 6.0 0.00 0.00 0.00 100 1013.1
20260902185325 150 52 0.0 7.0 0.00 0.00 0.00 100 1013.2
20260902184806 151 209 3.0 7.0 0.00 0.00 0.00 100 1013.3
20260902184307 151 295 0.0 5.0 0.00 0.00 0.00 100 1013.4
20260902183757 151 268 0.0 4.0 0.00 0.00 0.00 100 1013.5
20260902183246 151 40 0.0 6.0 0.00 0.00 0.00 100 1013.6
20260902182717 151 52 0.0 6.0 0.00 0.00 0.00 100 1013.8
20260902182217 151 196 0.0 6.0 0.00 0.00 0.00 100 1014.0
20260902181717 151 196 0.0 6.0 0.00 0.00 0.00 100 1014.1
20260902181200 151 241 0.0 6.0 0.00 0.00 0.00 100 1014.1
20260902180657 151 241 1.0 6.0 0.00 0.00 0.00 100 1014.3
20260902180158 151 198 1.0 6.0 0.00 0.00 0.00 100 1014.3
20260902175928 150 127 4.0 6.0 0.00 0.00 0.00 100 1014.4
20260902175158 151 225 1.0 6.0 0.00 0.00 0.00 100 1014.6
20260902174657 151 305 0.0 9.0 0.00 0.00 0.00 100 1014.6
20260902174156 151 355 5.0 9.0 0.00 0.00 0.00 100 1014.8
20260902173658 151 331 2.0 8.0 0.00 0.00 0.00 100 1014.8
20260902173156 151 326 1.0 8.0 0.00 0.00 0.00 100 1015.0
20260902172656 150 344 5.0 8.0 0.00 0.00 0.00 100 1015.0
20260902172156 150 219 3.0 6.0 0.00 0.00 0.00 100 1015.2
20260902171928 150 240 0.0 8.0 0.00 0.00 0.00 100 1015.2
20260902171156 150 0 4.0 8.0 0.00 0.00 0.00 100 1015.2
20260902170928 150 247 4.0 8.0 0.00 0.00 0.00 100 1015.2
20260902170149 150 358 3.0 8.0 0.00 0.00 0.00 100 1015.3
20260902165648 150 295 2.0 8.0 0.00 0.00 0.00 100 1015.3
20260902165148 150 334 2.0 8.0 0.00 0.00 0.00 100 1015.4
20260902164648 150 357 2.0 5.0 0.00 0.00 0.00 100 1015.6
20260902164145 149 236 0.0 5.0 0.00 0.00 0.00 100 1015.7
20260902163643 150 282 2.0 6.0 0.00 0.00 0.00 100 1015.8
20260902163142 149 302 0.0 9.0 0.00 0.00 0.00 100 1015.8
20260902162632 149 184 5.0 9.0 0.00 0.00 0.00 100 1015.9
20260902162128 149 219 4.0 9.0 0.00 0.00 0.00 100 1015.9
20260902161857 149 142 0.0 9.0 0.00 0.00 0.00 100 1015.9
20260902161113 149 201 0.0 6.0 0.00 0.00 0.00 100 1015.8
20260902160611 149 288 1.0 8.0 0.00 0.00 0.00 100 1015.8
20260902160605 149 338 2.0 8.0 0.00 0.00 0.00 100 1015.8
20260902155603 149 11 0.0 5.0 0.00 0.00 0.00 100 1015.9
20260902155047 148 358 1.0 5.0 0.00 0.00 0.00 100 1015.9
20260902154818 148 118 1.0 6.0 0.00 0.00 0.00 100 1015.8
20260902154316 148 227 2.0 7.0 0.00 0.00 0.00 100 1015.9
20260902153540 148 313 0.0 7.0 0.00 0.00 0.00 100 1015.9
20260902153302 148 291 3.0 6.0 0.00 0.00 0.00 100 1015.9
20260902152532 148 262 1.0 6.0 0.00 0.00 0.00 100 1015.9
20260902152011 147 240 3.0 7.0 0.00 0.00 0.00 100 1015.9
20260902151507 147 302 0.0 7.0 0.00 0.00 0.00 100 1015.8
20260902150956 147 345 1.0 5.0 0.00 0.00 0.00 100 1015.8
20260902150449 147 267 1.0 6.0 0.00 0.00 0.00 100 1015.7
20260902145941 147 223 2.0 6.0 0.00 0.00 0.00 100 1015.7
20260902145424 147 175 1.0 6.0 0.00 0.00 0.00 100 1015.7
20260902144918 146 337 3.0 7.0 0.00 0.00 0.00 100 1015.7
20260902144417 146 307 1.0 10.0 0.00 0.00 0.00 100 1015.7
20260902143914 146 63 3.0 10.0 0.00 0.00 0.00 100 1015.7
20260902143414 146 2 2.0 7.0 0.00 0.00 0.00 100 1015.7
20260902143140 146 210 1.0 8.0 0.00 0.00 0.00 100 1015.7
20260902142409 146 217 0.0 8.0 0.00 0.00 0.00 100 1015.6
20260902141909 146 199 0.0 8.0 0.00 0.00 0.00 100 1015.7
20260902141404 146 213 3.0 8.0 0.00 0.00 0.00 100 1015.6
20260902140859 146 151 3.0 7.0 0.00 0.00 0.00 100 1015.7
20260902140359 146 268 5.0 7.0 0.00 0.00 0.00 100 1015.7
20260902135858 146 299 1.0 5.0 0.00 0.00 0.00 100 1015.7
20260902135357 145 154 0.0 4.0 0.00 0.00 0.00 100 1015.6
20260902134856 145 206 0.0 4.0 0.00 0.00 0.00 100 1015.7
20260902134344 145 208 0.0 0.0 0.00 0.00 0.00 100 1015.6
20260902133832 145 208 0.0 3.0 0.00 0.00 0.00 100 1015.6
20260902133308 145 208 0.0 3.0 0.00 0.00 0.00 100 1015.6
20260902132758 145 135 0.0 0.0 0.00 0.00 0.00 100 1015.6
20260902132252 145 135 0.0 0.0 0.00 0.00 0.00 100 1015.4
20260902132020 144 135 0.0 0.0 0.00 0.00 0.00 100 1015.3
20260902131521 144 135 0.0 0.0 0.00 0.00 0.00 100 1015.3